Location: Reeth
(54.3881°N, 1.9432°W)
Time: 23:32:07
(UTC+00:00)

N. Korean satellite - Visible Passes

Search period start: 14 November 2018 00:00
Search period end: 24 November 2018 00:00
Orbit: 457 x 511 km, 97.2° (Epoch: 14 November)

Date Brightness Start Highest point End Pass type
(mag) Time Alt. Az. Time Alt. Az. Time Alt. Az.
14 Nov 9.2 05:51:46 10° NE 05:54:37 23° E 05:57:26 10° SSE visible
14 Nov 8.5 18:07:13 10° SSW 18:10:32 32° W 18:13:47 10° NNW visible
15 Nov 9.9 05:28:04 10° NE 05:29:54 14° E 05:31:43 10° ESE visible
15 Nov 7.2 17:42:22 10° S 17:45:55 58° WSW 17:49:28 10° NNW visible
16 Nov 6.8 06:35:48 10° NNE 06:39:17 70° ESE 06:42:42 10° S visible
16 Nov 6.4 17:17:48 10° SSE 17:21:25 77° ENE 17:24:59 10° N visible
16 Nov 10.1 18:53:51 10° WSW 18:55:21 12° W 18:56:51 10° WNW visible
17 Nov 8.2 06:11:27 10° NNE 06:14:42 37° E 06:17:55 10° SSE visible
17 Nov 6.9 16:53:33 10° SE 16:56:59 42° ENE 17:00:21 10° N visible
17 Nov 9.4 18:27:51 10° SW 18:30:37 20° W 18:33:21 10° NW visible
18 Nov 9.3 05:47:19 10° NE 05:50:02 21° E 05:52:43 10° SE visible
18 Nov 8.3 18:02:37 10° SSW 18:05:57 35° W 18:09:15 10° NNW visible
19 Nov 10.0 05:23:47 10° ENE 05:25:17 12° E 05:26:46 10° ESE visible
19 Nov 6.4 06:55:45 10° N 06:59:12 69° WNW 07:02:37 10° SSW visible
19 Nov 7.0 17:37:48 10° S 17:41:21 64° WSW 17:44:54 10° NNW visible
20 Nov 7.0 06:31:14 10° NNE 06:34:41 62° ESE 06:38:05 10° S visible
20 Nov 6.4 17:13:17 10° SSE 17:16:50 69° ENE 17:20:22 10° N visible
20 Nov 10.0 18:48:58 10° WSW 18:50:44 13° W 18:52:29 10° WNW visible
21 Nov 8.4 06:06:54 10° NNE 06:10:04 33° E 06:13:13 10° SSE visible
21 Nov 7.0 16:49:05 10° SE 16:52:24 38° ENE 16:55:41 10° N visible
21 Nov 9.2 18:23:08 10° SW 18:26:00 22° W 18:28:49 10° NW visible
22 Nov 9.5 05:42:49 10° NE 05:45:23 19° E 05:47:56 10° SE visible
22 Nov 8.1 17:57:59 10° SSW 18:01:20 38° W 18:04:39 10° NNW visible
23 Nov 10.1 05:19:32 10° ENE 05:20:36 11° E 05:21:41 10° ESE visible
23 Nov 6.4 06:51:08 10° NNE 06:54:35 78° WNW 06:58:01 10° SSW visible
23 Nov 6.8 17:33:12 10° S 17:36:44 72° WSW 17:40:15 10° NNW visible
